{"data":{"norad_id":64534,"epoch":"2026-09-21T19:24:25.686432Z","epoch_age_seconds":68487,"freshness":"FRESH","line1":"1 64534U 25135G   26264.80863063  .00005389  00000+0  24798-3 0  9999","line2":"2 64534  97.4832  18.8884 0005057 179.9068 180.2169 15.20738008 69502","mean_motion":15.20738008,"eccentricity":0.0005057,"inclination_deg":97.4832,"raan_deg":18.8884,"arg_perigee_deg":179.9068,"mean_anomaly_deg":180.2169,"bstar":0.00024798,"rev_number":6950,"period_min":94.690866699243,"perigee_km":500.13315481026,"apogee_km":507.0933570191,"semimajor_km":6881.7502559147,"source":"CELESTRAK","updated_at":"2026-09-22T09:00:29.839239Z"}}